McAllen, TX

8:27 PM CST on January 16, 2018 (GMT -0600)
McAllen Miller International

Weather History for KMFE - March, 2012

Change the Weather History Date:

Thursday, March 8, 2012

  Actual Average Record
Temperature  
Mean Temperature 80 °F 69 °F  
Max Temperature 90 °F 80 °F 96 °F (2011)
Min Temperature 70 °F 58 °F 36 °F (1996)
Degree Days  
Heating Degree Days 0 2  
Month to date heating degree days 5 16  
Since 1 July heating degree days 384 549  
Cooling Degree Days 15 6  
Month to date cooling degree days 58 43  
Year to date cooling degree days 308 202  
Growing Degree Days 29 (Base 50)    
Moisture  
Dew Point 68 °F    
Average Humidity 70    
Maximum Humidity 90    
Minimum Humidity 50    
Precipitation  
Precipitation 0.00 in 0.03 in 0.30 in (2015)
Month to date precipitation T 0.30  
Year to date precipitation 3.48 2.46  
Sea Level Pressure  
Sea Level Pressure 29.88 in    
Wind  
Wind Speed 22 mph (SSE)    
Max Wind Speed 44 mph    
Max Gust Speed 56 mph    
Visibility 10 miles    
Events      
T = Trace of Precipitation, MM = Missing Value Source: NWS Daily Summary

Daily Weather History Graph

Daily Weather History Graph

Search for Another Location

Airport or City:

Trip Planner

Search our weather history database for the weather conditions in past years. The results will help you decide how hot, cold, wet, or windy it might be!

Date:

Astronomy

Mar. 08, 2012 Rise Set
Actual Time 6:48 AM CST 6:38 PM CST
Civil Twilight 6:25 AM CST 7:01 PM CST
Nautical Twilight 5:59 AM CST 7:28 PM CST
Astronomical Twilight 5:32 AM CST 7:55 PM CST
Moon 7:16 PM CST (3/8) 6:40 AM CST (3/8)
Length of Visible Light 12h 35m
Length of Day
11h 49m
Full, 100% of the Moon is Illuminated
Mar 8
Full
Mar 14
Last Quarter
Mar 22
New
Mar 30
First Quarter
Apr 6
Full

Hourly Weather History & Observations

Time (CST) Temp. Heat Index Dew Point Humidity Pressure Visibility Wind Dir Wind Speed Gust Speed Precip Events Conditions
12:48 AM 71.6 °F - 68.0 °F 88% 29.93 in 10.0 mi SSE 13.8 mph 19.6 mph N/A   Overcast
12:53 AM 72.0 °F - 68.0 °F 87% 29.93 in 10.0 mi SSE 15.0 mph - N/A   Overcast
1:06 AM 71.6 °F - 68.0 °F 88% 29.93 in 10.0 mi South 18.4 mph 25.3 mph N/A   Overcast
1:28 AM 69.8 °F - 66.2 °F 88% 29.92 in 10.0 mi SSE 19.6 mph 27.6 mph N/A   Overcast
1:53 AM 71.6 °F - 66.2 °F 83% 29.86 in 10.0 mi SE 31.1 mph 43.7 mph N/A   Partly Cloudy
2:53 AM 72.0 °F - 66.0 °F 81% 29.77 in 10.0 mi SSE 34.5 mph 56.4 mph N/A   Clear
3:53 AM 71.1 °F - 66.0 °F 84% 29.77 in 10.0 mi SSE 24.2 mph 38.0 mph N/A   Clear
4:53 AM 71.1 °F - 66.0 °F 84% 29.80 in 10.0 mi SSE 15.0 mph 31.1 mph N/A   Clear
5:53 AM 71.1 °F - 66.9 °F 87% 29.84 in 9.0 mi SSE 19.6 mph 31.1 mph N/A   Clear
6:34 AM 71.6 °F - 68.0 °F 88% 29.87 in 8.0 mi SSE 23.0 mph 31.1 mph N/A   Mostly Cloudy
6:53 AM 71.1 °F - 68.0 °F 90% 29.87 in 8.0 mi SSE 20.7 mph 28.8 mph N/A   Overcast
7:53 AM 72.0 °F - 68.0 °F 87% 29.88 in 6.0 mi SSE 18.4 mph 28.8 mph N/A   Mostly Cloudy
8:17 AM 73.4 °F - 68.0 °F 83% 29.89 in 7.0 mi SSE 21.9 mph 28.8 mph N/A   Scattered Clouds
8:53 AM 75.9 °F - 68.0 °F 76% 29.90 in 8.0 mi SSE 21.9 mph 31.1 mph N/A   Partly Cloudy
9:20 AM 75.2 °F - 68.0 °F 78% 29.90 in 9.0 mi SSE 21.9 mph 33.4 mph N/A   Mostly Cloudy
9:53 AM 78.1 °F - 69.1 °F 74% 29.91 in 9.0 mi SSE 20.7 mph 33.4 mph N/A   Overcast
10:35 AM 80.6 °F 83.2 °F 68.0 °F 65% 29.90 in 10.0 mi SSE 24.2 mph 33.4 mph N/A   Mostly Cloudy
10:53 AM 81.0 °F 84.1 °F 69.1 °F 67% 29.90 in 10.0 mi SSE 20.7 mph 36.8 mph N/A   Scattered Clouds
11:53 AM 84.9 °F 88.2 °F 68.0 °F 57% 29.88 in 10.0 mi SSE 26.5 mph 34.5 mph N/A   Scattered Clouds
12:53 PM 87.1 °F 90.6 °F 68.0 °F 53% 29.86 in 10.0 mi SSE 23.0 mph 34.5 mph N/A   Scattered Clouds
1:53 PM 89.1 °F 92.9 °F 68.0 °F 50% 29.82 in 10.0 mi SSE 24.2 mph 35.7 mph N/A   Partly Cloudy
2:53 PM 89.1 °F 93.7 °F 69.1 °F 52% 29.81 in 10.0 mi SSE 19.6 mph 32.2 mph N/A   Scattered Clouds
3:53 PM 87.1 °F 92.0 °F 70.0 °F 57% 29.81 in 10.0 mi SSE 25.3 mph 32.2 mph N/A   Scattered Clouds
4:53 PM 84.9 °F 88.8 °F 69.1 °F 59% 29.81 in 10.0 mi SE 24.2 mph 32.2 mph N/A   Clear
5:53 PM 81.0 °F 83.8 °F 68.0 °F 65% 29.85 in 10.0 mi SE 23.0 mph 31.1 mph N/A   Clear
6:53 PM 78.1 °F - 68.0 °F 71% 29.86 in 10.0 mi SE 25.3 mph 32.2 mph N/A   Clear
7:53 PM 75.9 °F - 69.1 °F 79% 29.89 in 10.0 mi SE 24.2 mph 32.2 mph N/A   Clear
8:25 PM 75.2 °F - 69.8 °F 83% 29.92 in 10.0 mi SE 19.6 mph 27.6 mph N/A   Mostly Cloudy
8:53 PM 75.0 °F - 69.1 °F 82% 29.93 in 10.0 mi SE 19.6 mph 27.6 mph N/A   Overcast
9:53 PM 75.0 °F - 69.1 °F 82% 29.94 in 10.0 mi SSE 18.4 mph 26.5 mph N/A   Overcast
10:53 PM 73.9 °F - 69.1 °F 85% 29.96 in 10.0 mi SSE 19.6 mph 25.3 mph N/A   Overcast
11:40 PM 73.4 °F - 68.0 °F 83% 30.01 in 10.0 mi SSE 8.1 mph 20.7 mph N/A   Overcast
11:53 PM 73.9 °F - 68.0 °F 82% 30.02 in 10.0 mi SSE 8.1 mph - N/A   Overcast